TimeEST,TemperatureF,Dew PointF,Humidity,Sea Level PressureIn,VisibilityMPH,Wind Direction,Wind SpeedMPH,Gust SpeedMPH,PrecipitationIn,Events,Conditions,WindDirDegrees,DateUTC
12:55 AM,59.0,56.5,91,30.19,10.0,South,12.7,20.7,N/A,,Mostly Cloudy,170,2012-11-13 05:55:00
1:41 AM,59.0,57.2,94,30.18,10.0,SSE,11.5,-,N/A,,Mostly Cloudy,160,2012-11-13 06:41:00
1:55 AM,58.6,57.0,94,30.17,10.0,SSE,11.5,-,N/A,,Mostly Cloudy,150,2012-11-13 06:55:00
2:55 AM,58.6,57.2,95,30.14,10.0,SSE,9.2,-,N/A,,Overcast,160,2012-11-13 07:55:00
3:55 AM,59.5,58.1,95,30.11,10.0,SSE,13.8,-,N/A,,Overcast,150,2012-11-13 08:55:00
4:55 AM,60.1,58.5,94,30.11,10.0,South,8.1,-,N/A,,Overcast,170,2012-11-13 09:55:00
5:55 AM,60.1,58.1,93,30.10,10.0,SSE,6.9,-,N/A,,Overcast,150,2012-11-13 10:55:00
6:55 AM,60.3,57.9,92,30.10,10.0,South,9.2,-,N/A,,Overcast,190,2012-11-13 11:55:00
7:04 AM,60.8,57.2,88,30.12,10.0,West,16.1,27.6,N/A,Rain,Light Rain Showers,270,2012-11-13 12:04:00
7:28 AM,55.4,51.8,88,30.14,10.0,WNW,12.7,-,N/A,,Mostly Cloudy,290,2012-11-13 12:28:00
7:39 AM,55.4,51.8,88,30.16,10.0,WNW,8.1,-,N/A,Rain,Light Rain Showers,290,2012-11-13 12:39:00
7:55 AM,53.8,49.8,86,30.16,10.0,WNW,11.5,-,0.04,Rain,Light Rain Showers,290,2012-11-13 12:55:00
8:14 AM,53.6,50.0,88,30.16,10.0,NW,11.5,-,N/A,,Overcast,310,2012-11-13 13:14:00
8:55 AM,52.2,47.1,83,30.17,10.0,WNW,8.1,-,0.00,Rain,Light Rain Showers,290,2012-11-13 13:55:00
9:34 AM,51.8,48.2,88,30.19,2.0,West,8.1,-,N/A,Rain,Light Rain Showers,270,2012-11-13 14:34:00
9:55 AM,50.5,48.0,91,30.22,3.0,West,6.9,-,0.01,Rain,Light Rain Showers,270,2012-11-13 14:55:00
10:55 AM,50.4,48.7,94,30.21,7.0,West,5.8,-,0.03,Rain,Light Rain Showers,270,2012-11-13 15:55:00
11:40 AM,50.0,46.4,87,30.19,10.0,West,5.8,-,N/A,,Overcast,270,2012-11-13 16:40:00
11:55 AM,49.6,46.6,89,30.20,10.0,West,6.9,-,0.01,,Overcast,270,2012-11-13 16:55:00
12:35 PM,50.0,46.4,87,30.19,10.0,WNW,5.8,-,N/A,,Overcast,300,2012-11-13 17:35:00
12:48 PM,48.2,44.6,87,30.20,10.0,West,8.1,-,N/A,Rain,Light Rain Showers,280,2012-11-13 17:48:00
12:55 PM,48.7,44.4,85,30.20,6.0,WNW,8.1,-,0.00,Rain,Light Rain Showers,300,2012-11-13 17:55:00
1:45 PM,44.6,41.0,87,30.22,10.0,West,13.8,-,N/A,Rain,Light Rain Showers,280,2012-11-13 18:45:00
1:55 PM,44.6,40.1,84,30.23,10.0,West,9.2,-,0.06,Rain,Light Rain Showers,270,2012-11-13 18:55:00
2:55 PM,43.7,39.7,86,30.25,10.0,West,6.9,-,0.03,Rain,Light Rain Showers,260,2012-11-13 19:55:00
3:55 PM,43.3,37.4,80,30.26,10.0,WNW,8.1,-,0.00,Rain,Light Rain Showers,290,2012-11-13 20:55:00
4:55 PM,42.8,36.3,78,30.28,10.0,WNW,10.4,-,0.00,Rain,Light Rain Showers,300,2012-11-13 21:55:00
5:55 PM,42.4,34.2,72,30.32,10.0,WNW,5.8,-,0.00,,Mostly Cloudy,290,2012-11-13 22:55:00
6:55 PM,41.9,33.1,71,30.34,10.0,West,5.8,-,N/A,,Mostly Cloudy,280,2012-11-13 23:55:00
7:55 PM,41.0,32.4,71,30.37,10.0,WNW,6.9,-,N/A,,Overcast,290,2012-11-14 00:55:00
8:55 PM,40.6,32.4,72,30.39,10.0,NW,8.1,-,N/A,,Overcast,320,2012-11-14 01:55:00
9:55 PM,41.4,30.6,65,30.41,10.0,NNE,6.9,-,N/A,,Overcast,20,2012-11-14 02:55:00
10:55 PM,41.0,28.6,61,30.42,10.0,NNE,8.1,-,N/A,,Overcast,20,2012-11-14 03:55:00
11:55 PM,40.5,27.1,59,30.43,10.0,NNE,5.8,-,N/A,,Overcast,20,2012-11-14 04:55:00